GW0759 Weather Reports


Display with metric or nautical units.
time (UTC)temp
F
wind
direction
speed
MPH
gust
MPH
rain 1hr
in
rain 24hr
in
rain mn
in
humidity
%
barometer
mb
20260504050107 61 168 0.0 5.0 0.00 0.00 0.00 69 1014.2
20260504044554 61 112 1.0 5.0 0.00 0.00 0.00 68 1014.3
20260504043054 62 168 1.0 5.0 0.00 0.00 0.00 67 1014.4
20260504041552 62 159 1.0 6.0 0.00 0.00 0.00 66 1014.5
20260504040112 62 0 0.0 5.0 0.00 0.00 0.00 66 1014.6
20260504034550 63 169 0.0 2.0 0.00 0.00 0.00 64 1014.6
20260504033054 64 138 0.0 4.0 0.00 0.00 0.00 61 1014.5
20260504031557 64 122 1.0 6.0 0.00 0.00 0.00 60 1014.5
20260504030052 65 0 0.0 6.0 0.00 0.00 0.00 59 1014.3
20260504024553 65 140 3.0 6.0 0.00 0.00 0.00 60 1014.1
20260504023101 65 0 1.0 4.0 0.00 0.00 0.00 59 1014.3
20260504021555 65 0 1.0 3.0 0.00 0.00 0.00 58 1014.2
20260504020053 66 138 1.0 4.0 0.00 0.00 0.00 55 1014.2
20260504014604 67 178 1.0 4.0 0.00 0.00 0.00 53 1014.3
20260504013058 68 0 1.0 6.0 0.00 0.00 0.00 51 1014.1
20260504011555 70 187 1.0 7.0 0.00 0.00 0.00 48 1014.0
20260504010057 72 126 3.0 8.0 0.00 0.00 0.00 44 1014.1
20260504004554 73 133 2.0 10.0 0.00 0.00 0.00 42 1014.1
20260504003058 74 148 5.0 13.0 0.00 0.00 0.00 40 1014.1
20260504001606 76 151 5.0 13.0 0.00 0.00 0.00 38 1014.0
20260504000124 78 198 5.0 12.0 0.00 0.00 0.00 37 1014.2
20260503234556 78 190 4.0 12.0 0.00 0.00 0.00 36 1014.1
20260503233050 79 202 3.0 14.0 0.00 0.00 0.00 36 1014.3
20260503231549 80 117 6.0 15.0 0.00 0.00 0.00 34 1014.4
20260503230059 80 123 4.0 11.0 0.00 0.00 0.00 35 1014.4
20260503224551 81 169 7.0 15.0 0.00 0.00 0.00 33 1014.6
20260503223048 81 193 4.0 12.0 0.00 0.00 0.00 36 1014.5
20260503221556 81 171 3.0 13.0 0.00 0.00 0.00 36 1014.7
20260503220052 81 204 5.0 13.0 0.00 0.00 0.00 34 1014.9
20260503214550 81 142 4.0 12.0 0.00 0.00 0.00 36 1015.1
20260503213046 81 79 4.0 12.0 0.00 0.00 0.00 36 1015.4
20260503211551 81 151 4.0 14.0 0.00 0.00 0.00 37 1015.5
20260503210049 82 150 6.0 13.0 0.00 0.00 0.00 35 1015.8
20260503204551 80 213 4.0 14.0 0.00 0.00 0.00 37 1015.9
20260503203102 81 199 5.0 10.0 0.00 0.00 0.00 36 1016.3
20260503201603 81 151 5.0 11.0 0.00 0.00 0.00 36 1016.6
20260503200058 81 109 5.0 13.0 0.00 0.00 0.00 35 1016.7
20260503194602 81 185 5.0 11.0 0.00 0.00 0.00 40 1016.9
20260503193114 80 165 3.0 9.0 0.00 0.00 0.00 40 1017.2
20260503191607 79 217 4.0 10.0 0.00 0.00 0.00 35 1017.6
20260503190059 79 140 4.0 10.0 0.00 0.00 0.00 40 1018.0
20260503184553 79 172 5.0 12.0 0.00 0.00 0.00 38 1018.1
20260503183112 78 215 6.0 14.0 0.00 0.00 0.00 38 1018.2
20260503181620 78 147 5.0 12.0 0.00 0.00 0.00 42 1018.4
20260503180054 78 167 6.0 10.0 0.00 0.00 0.00 41 1018.7
20260503174552 77 219 3.0 11.0 0.00 0.00 0.00 44 1018.9
20260503173056 76 201 3.0 14.0 0.00 0.00 0.00 45 1019.2
20260503171556 76 239 4.0 9.0 0.00 0.00 0.00 47 1019.4
20260503100104 52 0 0.0 0.0 0.00 0.00 0.00 83 1018.5
20260503081556 53 0 0.0 0.0 0.00 0.00 0.00 83 1018.3
20260503071604 54 0 0.0 0.0 0.00 0.00 0.00 85 1018.7
20260503070110 53 0 0.0 0.0 0.00 0.00 0.00 87 1018.8